SCP
0 0 0 0 0 0 0 0 0 0 0 0 0 0 0 0 0 0 0 0 0 0 0 0 0 0 0 0 -0 -0 -0 0 0 0 0 0 0 0 0 0 0 0 0 0 0 0 0 0 0 0 0 0 0 0
0 0 0 0 0 0 0 0 0 0 0 0 0 0 0 0 0 0 0 0 0 0 0 0 0 0 0 0 -0 -0 -0 -0 0 0 0 0 0 0 0 0 0 0 0 0 0 0 0 0 0 0 0 0 0 0
0 0 0 0 0 0 0 0 0 0 0 0 0 0 0 0 0 0 0 0 0 0 0 0 0 0 0 0 -0 0 0 0 0 0 0 0 0 0 0 0 0 0 0 0 0 0 0 0 0 0 0 0 0 0
0 0 0 0 0 0 0 0 0 0 0 0 0 0 0 0 0 0 0 0 0 0 0 0 0 0 0 0 0 0 0 0 0 0 0 0 0 0 0 0 0 0 0 0 0 0 0 0 0 0 0 0 0 0
0 0 0 0 0 0 0 0 0 0 0 0 0 0 0 0 0 0 0 0 0 0 0 0 0 0 0 0 0 0 0 0 0 0 0 0 0 0 0 0 0 0 0 0 0 0 0 0 0 0 0 0 0 0
0 0 0 0 0 0 0 0 0 0 0 0 0 0 0 0 0 0 0 0 0 0 0 0 0 0 0 0 0 0 0 0 0 0 0 0 0 -0 0 0 0 0 0 0 0 0 0 0 0 0 0 0 0 0
0 0 0 0 0 0 0 0 0 0 0 0 0 0 0 0 0 0 0 0 0 0 0 0 0 0 0 0 0 0 0 0 0 0 0 0 0 0 0 0 0 0 0 0 0 0 0 0 0 0 0 0 0 0
0 0 0 0 0 0 0 0 0 0 0 0 0 0 0 0 0 0 0 0 0 0 0 0 0 0 0 0 0 0 0 0 0 0 0 0 0 0 0 0 0 0 0 0 0 0 0 0 0 0 0 0 0 0
0 0 0 0 0 0 0 0 0 0 0 0 0 0 0 0 0 0 0 0 0 0 0 0 0 0 0 0 0 0 0 0 0 0 0 0 0 0 0 0 0 0 0 0 0 0 0 0 0 0 0 0 0 0
0 0 0 0 0 0 0 0 0 0 0 0 0 0 0 0 0 0 0 0 0 0 0 0 0 0 0 0 0 0 0 0 0 0 0 0 0 0 0 0 0 0 0 0 0 0 0 0 0 0 -0 0 0 0
0 0 0 0 0 0 0 0 0 0 0 0 0 0 0 0 0 0 0 0 0 0 0 0 0 0 0 0 0 0 0 0 0 0 0 0 0 0 0 0 0 0 0 0 0 0 0 0 0 0 -0 -0 0 0
0 0 0 0 0 0 0 0 0 0 0 0 0 0 0 0 0 0 0 0 0 0 0 0 0 0 0 0 0 0 0 0 0 0 0 0 0 0 0 0 0 0 0 0 0 0 0 0 0 0 0 0 0 0
0 0 0 0 0 0 0 0 0 0 0 0 0 0 0 0 0 0 0 0 0 0 0 0 0 0 0 0 0 0 0 0 0 0 0 0 0 0 0 0 0 0 0 0 0 0 0 0 0 0 0 0 0 0
0 0 0 0 0 0 0 0 0 0 0 0 0 0 0 0 0 0 0 0 0 0 0 0 0 0 0 0 0 0 0 0 0 0 0 0 0 0 0 0 -0 0 0 0 0 0 0 0 0 0 0 0 0 0
0 0 0 0 0 0 0 0 0 0 0 0 0 0 0 0 0 0 0 0 0 0 0 0 0 0 0 0 0 0 0 0 0 0 0 0 0 0 0 -0 -0 0 0 0 0 0 0 0 0 0 0 0 0 0
0 0 0 0 0 0 0 0 0 0 0 0 0 0 0 0 0 0 0 0 0 0 0 0 0 0 0 0 0 0 0 0 0 0 0 0 0 0 0 -0 0 0 0 0 0 0 0 0 0 0 0 0 0 0
0 0 0 0 0 0 0 0 0 0 0 0 0 0 0 0 0 0 0 0 0 0 0 0 0 0 0 0 0 0 0 0 0 0 0 0 0 0 0 0 0 0 0 0 0 0 0 0 0 0 0 0 0 0
0 0 0 0 0 0 0 0 0 0 0 0 0 0 0 0 0 0 0 0 0 0 0 0 0 0 0 0 0 0 0 0 0 0 0 0 0 0 0 0 0 0 0 0 0 0 0 0 0 0 0 0 0 0
0 0 0 0 0 0 0 0 0 0 0 0 0 0 0 0 0 0 0 0 0 0 0 0 0 0 0 0 0 0 0 0 0 0 -0 -0 -0 0 0 0 0 0 0 0 0 0 0 0 0 0 0 0 0 0
0 0 0 0 0 0 0 0 0 0 0 0 0 0 0 0 0 0 0 0 0 0 0 0 0 0 0 0 0 0 0 0 0 0 0 0 -0 0 0 0 0 0 0 0 0 0 0 0 0 0 0 0 0 0
0 0 0 0 0 0 0 0 0 0 0 0 0 0 0 0 0 0 0 0 0 0 0 0 0 0 0 0 0 0 0 0 0 0 0 0 0 0 0 0 0 0 0 -0 0 0 0 0 0 0 0 0 0 0
0 0 0 0 0 0 0 0 0 0 0 0 0 0 0 0 0 0 0 0 0 0 0 0 0 0 0 0 0 0 0 0 0 0 0 0 0 0 0 0 0 0 0 0 0 0 0 0 0 0 0 0 0 0
0 0 0 0 0 0 0 0 0 0 0 0 0 0 0 0 0 0 0 0 0 0 0 0 0 0 0 0 0 0 0 0 0 0 0 0 0 0 0 0 0 0 0 0 0 0 0 0 0 0 0 0 0 0
0 0 0 0 0 0 0 0 0 0 0 0 0 0 0 0 0 0 0 0 0 0 0 0 0 0 0 0 0 0 0 0 0 0 0 0 0 0 0 0 0 0 0 0 0 0 0 0 0 0 0 0 0 0
0 0 0 0 0 0 0 0 0 0 0 0 0 0 0 0 0 0 0 0 0 0 0 0 0 0 0 0 0 0 0 0 0 0 0 0 0 0 0 0 0 0 0 0 0 0 0 0 0 0 0 0 0 0
0 0 0 0 0 0 0 0 0 0 0 0 0 0 0 0 0 0 0 0 0 0 0 0 0 0 0 0 0 0 0 0 0 0 0 0 0 0 0 0 0 0 0 0 0 0 0 0 0 0 0 0 0 0
0 0 0 0 0 0 0 0 0 0 0 0 0 0 0 0 0 0 0 0 0 0 0 0 0 0 0 0 0 0 0 0 0 0 0 0 0 0 0 0 0 0 0 0 0 0 0 0 0 0 0 0 0 0
0 0 0 0 0 0 0 0 0 0 0 0 0 0 0 0 0 0 0 0 0 0 0 0 0 0 0 0 0 0 0 0 0 0 0 0 0 0 0 0 0 0 0 0 0 0 0 0 0 0 0 0 0 0
-0 0 0 0 0 0 0 0 0 0 0 0 0 0 0 0 0 0 0 0 0 0 0 0 0 0 0 0 0 0 0 0 0 0 0 0 0 0 0 0 0 0 0 0 0 0 0 0 0 0 0 0 0 0
0 0 0 0 0 0 0 0 0 0 0 0 0 0 0 0 0 0 0 0 0 0 0 0 0 0 0 0 0 0 0 0 0 0 0 0 0 0 0 0 0 0 0 0 0 0 0 0 0 0 0 0 0 0
0 0 0 0 0 0 0 0 0 0 0 0 0 0 0 0 0 0 0 0 0 0 0 0 0 0 0 0 0 0 0 0 0 0 0 0 0 0 0 0 0 0 0 0 0 0 0 0 0 0 0 0 0 0
0 0 0 0 0 -0 0 0 0 0 0 0 0 0 0 0 0 0 0 0 0 0 0 0 0 0 0 0 0 0 0 0 0 0 0 0 0 0 0 0 0 0 0 0 0 0 0 0 0 0 0 0 0 0
0 0 0 0 0 0 0 0 0 -0 0 0 0 0 0 0 0 0 0 0 0 0 0 0 0 0 0 0 0 0 0 0 0 0 0 0 0 0 0 0 0 0 0 0 0 0 0 0 0 0 0 0 0 0
Wind_Speed_500mb
71 66 61 59 51 53 41 41 45 34 28 28 26 21 17 14 14 15 16 17 10 3 3 10 4 2 0 1 1 5 4 4 6 1 3 3 3 3 4 3 3 3 5 4 4 7 7 5 7 4 5 5 6 11
73 70 64 60 55 51 49 41 49 42 34 27 27 23 18 13 13 15 14 17 16 8 5 5 15 14 11 6 3 4 3 0 6 1 1 3 3 3 3 2 4 5 4 1 6 2 4 4 5 11 9 6 1 8
75 70 64 63 60 52 51 43 44 49 40 33 26 24 21 17 15 14 11 12 12 7 11 10 12 16 19 20 16 3 2 1 5 4 4 2 6 1 4 6 6 6 4 3 6 4 6 16 19 23 21 21 17 19
76 72 67 62 61 57 49 53 43 50 46 40 32 26 23 19 15 15 12 13 12 3 4 3 7 10 11 18 23 25 15 2 3 3 2 3 4 2 4 6 5 4 3 10 12 12 25 31 33 37 36 30 30 23
79 74 69 63 61 61 56 48 50 43 51 45 39 31 24 20 17 16 15 16 17 7 3 4 6 12 16 17 14 15 22 13 5 3 3 4 3 5 6 7 18 21 17 12 11 11 6 8 21 23 37 46 47 37
75 74 68 65 59 57 57 52 45 45 40 51 44 35 31 24 18 14 6 20 21 20 5 3 5 7 9 4 4 6 7 10 10 7 5 7 9 5 7 9 18 33 55 53 38 36 41 42 31 34 36 26 18 25
74 71 67 67 64 62 61 56 50 44 43 42 45 40 34 29 23 13 5 1 17 15 4 4 3 3 4 4 4 6 14 9 10 7 9 9 7 11 6 10 4 22 36 43 51 55 46 46 45 45 35 34 40 41
75 74 73 71 66 64 64 61 55 48 44 41 45 40 32 33 31 25 15 7 12 11 4 3 1 5 10 5 5 9 7 10 8 6 5 7 6 11 12 34 36 42 35 41 51 56 64 64 60 56 56 48 48 45
81 78 77 70 64 65 63 62 60 52 46 44 35 40 38 42 31 31 27 17 24 9 8 6 5 3 15 5 6 6 3 5 5 6 7 4 8 16 23 29 42 42 30 37 43 45 52 59 68 73 74 62 53 34
80 80 78 75 69 69 68 67 60 54 51 48 47 28 13 17 32 25 20 20 23 12 11 8 9 6 14 10 6 6 2 3 5 5 2 8 14 52 56 65 63 58 57 50 49 56 54 56 56 63 72 66 50 40
78 75 76 74 71 73 72 73 64 64 58 62 28 17 29 43 29 18 13 13 12 8 14 12 27 12 16 7 6 8 4 4 5 4 5 7 9 10 23 20 15 26 32 33 41 52 53 55 51 48 50 58 60 50
80 77 75 76 73 72 74 74 67 80 63 56 32 46 51 15 11 11 11 10 12 11 16 15 13 11 13 11 6 9 5 3 7 2 5 8 9 19 17 18 34 35 38 40 35 38 38 46 43 35 23 32 34 32
73 79 81 78 72 78 73 82 79 74 75 55 26 22 19 15 19 17 21 8 9 15 20 17 10 16 10 8 6 6 9 8 3 5 8 10 16 24 28 31 32 32 36 39 36 32 31 34 38 35 26 19 19 23
64 71 80 78 72 75 70 76 83 83 72 21 20 17 15 15 15 10 14 14 20 26 47 38 16 10 9 10 4 8 3 3 6 7 11 6 14 16 26 26 33 38 36 32 25 21 21 21 21 29 28 22 24 22
53 55 63 81 86 72 75 77 89 98 51 18 16 16 20 11 13 25 38 36 25 49 60 24 12 8 6 6 3 7 4 9 10 9 5 8 16 24 21 22 27 31 28 24 18 13 15 23 29 32 32 30 25 24
55 55 57 62 76 79 81 84 95 89 41 20 21 13 12 20 9 19 26 20 40 58 42 12 8 9 7 7 9 15 8 12 6 6 16 19 25 26 20 20 21 23 18 13 6 4 12 20 25 31 32 31 31 26
55 56 74 77 64 73 77 72 65 50 25 19 11 38 49 33 38 35 38 43 63 58 8 9 12 7 9 6 8 9 11 5 8 14 21 28 28 20 15 10 10 11 10 8 9 12 17 23 26 31 34 32 28 24
58 46 58 64 84 59 73 64 35 27 16 14 18 36 63 36 54 61 42 72 51 35 26 11 21 9 11 13 8 8 31 29 19 15 23 25 17 12 9 4 1 1 5 12 17 21 24 27 30 31 29 29 29 32
47 44 44 55 63 45 31 22 26 8 7 32 45 41 52 40 61 86 83 94 54 60 31 25 8 10 8 10 10 17 21 21 11 16 17 13 9 8 9 14 14 11 11 13 16 18 22 23 22 24 26 29 27 25
36 39 41 51 48 26 9 12 17 11 7 19 33 37 37 36 62 69 74 79 59 40 10 7 9 14 21 33 21 19 13 16 11 2 10 9 7 8 14 18 16 17 17 19 20 20 21 26 27 27 26 24 21 21
38 39 37 45 53 32 8 2 2 1 15 13 32 45 15 35 37 35 43 59 24 16 7 14 23 35 29 24 24 21 18 14 10 7 10 11 12 15 21 26 27 25 24 25 24 24 22 20 20 20 19 18 18 17
38 45 20 45 7 8 8 6 4 2 3 17 30 18 16 10 18 27 46 19 9 16 16 20 26 27 30 27 26 26 23 18 16 15 10 10 19 27 34 34 32 29 26 23 21 19 17 16 17 17 17 17 18 18
39 26 9 9 6 5 4 13 5 5 4 9 15 8 5 7 18 42 8 6 7 16 22 23 20 22 26 28 27 25 23 20 19 19 17 14 19 30 34 34 33 29 27 25 21 18 17 18 19 19 20 21 20 19
33 11 11 8 14 5 2 2 7 8 8 3 4 7 4 5 24 7 7 5 2 10 17 17 18 21 23 24 24 23 20 19 20 22 21 20 21 33 42 42 38 33 30 26 24 23 24 25 24 23 21 19 19 19
13 20 15 11 17 10 8 4 4 4 5 6 4 5 7 11 5 5 5 4 3 4 6 9 13 18 20 21 19 18 17 17 19 21 20 21 24 31 43 48 45 40 35 31 30 28 29 30 28 26 25 24 23 23
16 17 13 13 11 9 7 6 10 9 7 6 9 10 12 6 6 5 6 16 6 3 2 4 7 11 13 16 17 17 16 16 18 18 18 20 23 27 34 44 46 43 38 35 33 31 30 30 29 28 28 28 28 27
13 13 12 17 11 10 9 12 10 10 12 10 8 9 6 5 3 4 11 12 6 7 8 7 9 11 13 12 13 13 14 15 17 18 18 18 23 27 32 36 39 40 35 37 35 33 30 29 29 29 29 29 28 27
12 21 14 25 15 20 8 8 10 8 6 11 3 9 6 8 4 12 8 15 10 4 3 4 6 8 10 10 9 9 10 12 12 14 15 17 20 25 28 32 35 38 33 34 36 35 34 32 31 31 31 30 30 30
12 21 7 10 12 15 14 9 7 6 6 6 4 6 6 5 7 10 10 9 8 5 4 7 9 10 12 8 6 5 7 9 9 9 10 12 12 14 20 24 27 30 32 34 37 36 34 33 33 33 32 32 32 32
12 16 7 9 8 9 11 11 11 12 10 15 18 26 24 20 26 16 16 18 15 15 15 14 12 13 17 15 16 12 7 5 5 6 7 9 10 11 13 16 20 23 26 29 31 35 39 38 37 38 37 37 36 36
9 6 9 9 6 10 22 29 35 38 42 42 34 32 20 14 27 38 34 29 26 24 25 27 25 24 23 20 17 16 17 13 13 10 7 7 8 9 11 14 17 19 21 23 25 27 29 34 36 36 37 37 37 36
10 6 9 5 4 7 0 7 10 12 10 11 11 9 9 9 10 16 33 22 22 27 27 26 27 29 28 27 25 24 22 16 13 14 9 7 7 8 9 11 13 15 18 20 22 23 25 26 29 31 32 32 32 31
8 12 11 6 4 1 4 4 6 7 8 7 10 10 11 9 7 14 18 24 19 19 20 22 23 20 17 15 14 14 15 15 13 12 14 11 10 11 12 12 12 13 13 15 17 19 21 23 25 27 27 27 27 26
Wind_Direction_500mb
194 197 198 195 203 196 205 196 192 191 194 199 194 193 197 197 201 206 207 197 200 197 224 202 183 114 345 113 5 351 286 25 359 21 309 17 296 54 280 280 238 246 194 194 165 227 258 141 109 214 56 35 341 300
193 196 196 194 196 199 196 200 192 190 193 196 197 192 193 199 199 200 224 213 218 235 256 231 238 235 224 226 16 354 114 91 15 321 154 316 296 288 312 291 198 262 262 270 238 344 0 328 318 159 120 123 38 340
194 196 197 194 192 199 197 196 193 192 191 191 193 192 190 192 205 201 207 203 197 237 270 253 234 240 245 239 234 278 304 298 59 58 22 347 268 250 272 249 298 212 112 216 317 226 264 247 262 249 250 256 274 278
193 195 197 195 192 194 200 194 193 193 193 191 193 190 189 186 202 212 201 200 201 187 268 295 248 242 254 246 237 231 224 307 69 52 17 278 276 219 279 310 267 332 156 217 247 273 276 271 245 247 253 270 280 289
194 195 194 195 193 191 195 197 197 193 194 194 193 195 191 184 193 212 216 213 213 213 278 286 279 251 260 264 260 248 223 212 237 232 218 247 244 269 224 277 251 209 217 215 249 178 228 289 320 307 265 263 265 276
193 194 191 192 193 190 192 194 195 196 194 195 192 196 198 197 194 199 229 238 225 221 280 275 262 249 275 319 239 212 193 198 194 205 238 249 245 268 266 246 242 229 227 238 252 264 275 284 280 281 306 303 279 274
194 194 193 192 192 192 192 191 192 191 192 189 190 195 195 200 201 190 201 115 188 182 244 280 248 241 200 247 219 205 216 211 204 209 225 237 234 208 251 258 235 247 236 238 248 255 261 260 267 270 273 275 289 287
199 197 195 191 191 193 192 189 189 189 188 185 187 191 190 200 204 214 206 169 155 168 167 269 212 217 177 141 163 177 191 204 229 247 242 213 196 222 254 247 262 266 275 271 269 262 262 267 268 266 273 271 267 269
197 196 194 190 192 192 188 188 187 186 184 182 174 182 183 188 197 214 210 199 191 188 182 205 228 162 167 137 112 166 200 210 225 248 209 224 209 226 246 261 262 264 257 275 287 279 274 267 264 261 266 265 255 249
196 196 200 199 202 198 192 187 182 184 181 173 168 169 177 180 190 185 179 181 199 216 215 238 190 157 162 156 147 147 193 253 243 205 215 232 255 255 260 263 276 283 282 278 272 271 268 264 265 264 258 268 263 255
198 201 202 200 202 195 194 197 194 178 179 176 171 152 143 151 150 179 191 180 167 209 215 212 190 143 169 153 158 212 193 193 243 140 241 253 263 243 262 263 275 295 289 284 268 263 258 261 272 284 271 264 267 264
199 200 199 198 199 201 201 197 199 182 187 177 156 129 146 166 184 195 191 161 193 215 184 169 174 154 150 160 144 176 207 184 246 95 245 255 254 262 280 301 305 306 296 292 288 275 264 252 253 260 277 280 255 237
181 200 203 205 203 203 197 202 189 188 187 153 154 144 145 181 215 203 176 172 180 177 167 154 133 148 133 164 112 173 198 224 128 215 239 245 280 297 310 316 319 316 306 297 291 279 265 254 244 246 246 223 212 208
180 181 197 203 210 207 202 203 191 191 188 186 161 150 193 180 223 183 152 167 195 161 150 144 122 140 142 162 150 201 102 252 228 233 239 242 279 303 320 322 326 329 325 316 302 274 249 219 201 204 208 208 210 213
200 187 188 203 209 208 206 205 198 190 188 182 181 199 201 161 154 180 173 167 163 162 146 126 100 134 126 132 198 114 163 236 230 233 238 252 296 314 319 323 330 330 330 324 308 273 226 204 203 207 190 188 188 193
206 213 208 200 198 196 197 207 199 191 192 202 194 175 143 148 147 164 177 150 153 150 145 132 137 160 165 148 164 208 198 222 231 216 251 287 305 310 308 321 335 338 342 341 332 197 186 182 185 181 166 157 155 159
199 209 210 202 203 203 200 204 190 194 205 198 171 207 184 169 170 173 177 178 159 152 159 141 167 168 115 182 214 197 214 220 226 264 288 300 307 297 296 318 331 352 15 56 91 126 150 154 159 155 153 150 157 162
207 217 211 206 200 207 214 210 213 200 193 168 161 195 192 189 166 173 178 171 157 184 164 178 133 181 186 181 213 214 223 232 262 276 301 303 293 275 271 233 188 177 81 100 115 123 131 139 149 155 160 158 161 160
207 209 204 205 196 198 211 224 199 209 175 171 187 195 178 184 189 188 186 178 177 177 155 155 164 184 201 222 214 202 210 206 218 290 306 314 274 251 216 177 165 159 147 139 137 138 139 140 148 150 153 152 161 169
206 203 201 208 209 213 238 241 205 177 198 183 175 166 174 183 181 181 169 173 175 167 170 200 194 194 200 216 226 211 224 239 241 280 339 320 256 230 200 186 182 173 169 157 142 138 143 148 151 154 156 159 168 176
200 200 199 197 208 215 210 223 266 357 160 156 153 151 129 151 144 155 165 176 171 184 177 193 185 188 202 207 204 206 196 185 203 256 284 282 217 196 185 171 165 160 160 152 147 145 147 153 159 163 168 173 181 190
182 184 158 186 119 130 159 141 135 218 328 121 139 129 134 158 152 164 159 173 193 178 181 181 191 191 196 199 193 195 209 222 237 254 266 256 218 197 187 179 177 173 173 172 168 167 170 178 185 187 187 187 188 188
161 156 93 99 142 131 145 137 149 86 75 160 139 114 155 140 142 144 104 72 134 187 193 193 197 202 206 211 222 233 237 235 237 236 236 235 221 209 202 198 194 193 193 191 190 191 193 191 186 182 181 182 187 191
135 68 41 47 28 61 24 46 95 98 101 296 163 108 92 93 137 67 93 53 124 164 180 184 191 194 201 210 221 228 233 231 227 226 230 231 227 214 209 206 204 206 203 205 207 202 192 189 191 194 195 198 199 198
88 9 14 19 19 4 34 10 24 93 86 41 46 68 13 13 86 83 91 49 62 103 155 171 179 186 190 202 214 218 223 221 219 223 227 225 224 216 211 209 208 207 211 215 210 207 202 199 199 201 200 197 197 194
72 17 31 351 5 38 339 25 23 35 21 65 39 350 11 51 61 76 13 343 332 341 322 231 203 180 188 199 213 223 223 226 226 225 228 227 220 220 220 217 215 216 215 215 213 216 215 212 210 206 202 197 193 191
48 5 19 22 353 333 31 29 21 46 51 31 358 4 9 72 69 21 345 349 287 275 286 249 233 222 220 221 223 226 230 231 229 231 231 229 222 215 215 217 223 223 229 226 220 216 220 222 220 214 206 201 196 195
58 29 18 360 27 28 54 34 20 43 33 342 268 48 80 27 16 334 322 336 328 299 223 194 190 202 207 217 223 225 219 212 210 213 218 224 224 222 217 220 221 224 228 222 222 223 220 216 217 215 211 207 203 198
44 2 25 34 41 42 37 27 9 345 335 321 61 75 83 66 357 346 7 37 48 76 135 149 147 147 137 140 154 175 191 195 195 198 215 219 214 217 223 222 218 217 218 217 218 220 219 216 213 211 208 204 201 200
9 14 83 54 50 43 24 30 54 50 100 112 106 112 95 82 65 71 81 92 97 92 98 107 119 132 119 123 110 110 119 136 164 194 207 216 215 213 213 212 212 212 212 211 213 214 214 211 207 202 201 198 196 197
8 50 62 60 97 135 105 85 83 81 84 83 95 102 108 113 66 51 61 71 83 92 98 95 96 96 101 104 104 101 90 93 107 114 140 162 176 187 193 197 199 202 205 209 212 213 212 207 205 205 200 198 196 195
29 53 123 98 166 178 321 91 79 80 59 55 52 70 78 78 60 30 26 48 71 78 80 85 86 80 81 82 83 85 84 79 89 88 93 116 138 157 169 178 185 190 191 192 195 199 198 199 197 195 195 193 193 193
17 40 74 96 69 48 102 117 95 114 71 43 34 52 54 57 72 25 21 22 39 51 60 69 71 70 75 79 82 85 90 90 82 106 109 113 123 133 143 152 161 168 175 181 185 185 185 186 188 188 188 190 192 194
Wind_Speed_850mb
71 66 61 59 51 53 41 41 45 34 28 28 26 21 17 14 14 15 16 17 10 3 3 10 4 2 0 1 1 5 4 4 6 1 3 3 3 3 4 3 3 3 5 4 4 7 7 5 7 4 5 5 6 11
73 70 64 60 55 51 49 41 49 42 34 27 27 23 18 13 13 15 14 17 16 8 5 5 15 14 11 6 3 4 3 0 6 1 1 3 3 3 3 2 4 5 4 1 6 2 4 4 5 11 9 6 1 8
75 70 64 63 60 52 51 43 44 49 40 33 26 24 21 17 15 14 11 12 12 7 11 10 12 16 19 20 16 3 2 1 5 4 4 2 6 1 4 6 6 6 4 3 6 4 6 16 19 23 21 21 17 19
76 72 67 62 61 57 49 53 43 50 46 40 32 26 23 19 15 15 12 13 12 3 4 3 7 10 11 18 23 25 15 2 3 3 2 3 4 2 4 6 5 4 3 10 12 12 25 31 33 37 36 30 30 23
79 74 69 63 61 61 56 48 50 43 51 45 39 31 24 20 17 16 15 16 17 7 3 4 6 12 16 17 14 15 22 13 5 3 3 4 3 5 6 7 18 21 17 12 11 11 6 8 21 23 37 46 47 37
75 74 68 65 59 57 57 52 45 45 40 51 44 35 31 24 18 14 6 20 21 20 5 3 5 7 9 4 4 6 7 10 10 7 5 7 9 5 7 9 18 33 55 53 38 36 41 42 31 34 36 26 18 25
74 71 67 67 64 62 61 56 50 44 43 42 45 40 34 29 23 13 5 1 17 15 4 4 3 3 4 4 4 6 14 9 10 7 9 9 7 11 6 10 4 22 36 43 51 55 46 46 45 45 35 34 40 41
75 74 73 71 66 64 64 61 55 48 44 41 45 40 32 33 31 25 15 7 12 11 4 3 1 5 10 5 5 9 7 10 8 6 5 7 6 11 12 34 36 42 35 41 51 56 64 64 60 56 56 48 48 45
81 78 77 70 64 65 63 62 60 52 46 44 35 40 38 42 31 31 27 17 24 9 8 6 5 3 15 5 6 6 3 5 5 6 7 4 8 16 23 29 42 42 30 37 43 45 52 59 68 73 74 62 53 34
80 80 78 75 69 69 68 67 60 54 51 48 47 28 13 17 32 25 20 20 23 12 11 8 9 6 14 10 6 6 2 3 5 5 2 8 14 52 56 65 63 58 57 50 49 56 54 56 56 63 72 66 50 40
78 75 76 74 71 73 72 73 64 64 58 62 28 17 29 43 29 18 13 13 12 8 14 12 27 12 16 7 6 8 4 4 5 4 5 7 9 10 23 20 15 26 32 33 41 52 53 55 51 48 50 58 60 50
80 77 75 76 73 72 74 74 67 80 63 56 32 46 51 15 11 11 11 10 12 11 16 15 13 11 13 11 6 9 5 3 7 2 5 8 9 19 17 18 34 35 38 40 35 38 38 46 43 35 23 32 34 32
73 79 81 78 72 78 73 82 79 74 75 55 26 22 19 15 19 17 21 8 9 15 20 17 10 16 10 8 6 6 9 8 3 5 8 10 16 24 28 31 32 32 36 39 36 32 31 34 38 35 26 19 19 23
64 71 80 78 72 75 70 76 83 83 72 21 20 17 15 15 15 10 14 14 20 26 47 38 16 10 9 10 4 8 3 3 6 7 11 6 14 16 26 26 33 38 36 32 25 21 21 21 21 29 28 22 24 22
53 55 63 81 86 72 75 77 89 98 51 18 16 16 20 11 13 25 38 36 25 49 60 24 12 8 6 6 3 7 4 9 10 9 5 8 16 24 21 22 27 31 28 24 18 13 15 23 29 32 32 30 25 24
55 55 57 62 76 79 81 84 95 89 41 20 21 13 12 20 9 19 26 20 40 58 42 12 8 9 7 7 9 15 8 12 6 6 16 19 25 26 20 20 21 23 18 13 6 4 12 20 25 31 32 31 31 26
55 56 74 77 64 73 77 72 65 50 25 19 11 38 49 33 38 35 38 43 63 58 8 9 12 7 9 6 8 9 11 5 8 14 21 28 28 20 15 10 10 11 10 8 9 12 17 23 26 31 34 32 28 24
58 46 58 64 84 59 73 64 35 27 16 14 18 36 63 36 54 61 42 72 51 35 26 11 21 9 11 13 8 8 31 29 19 15 23 25 17 12 9 4 1 1 5 12 17 21 24 27 30 31 29 29 29 32
47 44 44 55 63 45 31 22 26 8 7 32 45 41 52 40 61 86 83 94 54 60 31 25 8 10 8 10 10 17 21 21 11 16 17 13 9 8 9 14 14 11 11 13 16 18 22 23 22 24 26 29 27 25
36 39 41 51 48 26 9 12 17 11 7 19 33 37 37 36 62 69 74 79 59 40 10 7 9 14 21 33 21 19 13 16 11 2 10 9 7 8 14 18 16 17 17 19 20 20 21 26 27 27 26 24 21 21
38 39 37 45 53 32 8 2 2 1 15 13 32 45 15 35 37 35 43 59 24 16 7 14 23 35 29 24 24 21 18 14 10 7 10 11 12 15 21 26 27 25 24 25 24 24 22 20 20 20 19 18 18 17
38 45 20 45 7 8 8 6 4 2 3 17 30 18 16 10 18 27 46 19 9 16 16 20 26 27 30 27 26 26 23 18 16 15 10 10 19 27 34 34 32 29 26 23 21 19 17 16 17 17 17 17 18 18
39 26 9 9 6 5 4 13 5 5 4 9 15 8 5 7 18 42 8 6 7 16 22 23 20 22 26 28 27 25 23 20 19 19 17 14 19 30 34 34 33 29 27 25 21 18 17 18 19 19 20 21 20 19
33 11 11 8 14 5 2 2 7 8 8 3 4 7 4 5 24 7 7 5 2 10 17 17 18 21 23 24 24 23 20 19 20 22 21 20 21 33 42 42 38 33 30 26 24 23 24 25 24 23 21 19 19 19
13 20 15 11 17 10 8 4 4 4 5 6 4 5 7 11 5 5 5 4 3 4 6 9 13 18 20 21 19 18 17 17 19 21 20 21 24 31 43 48 45 40 35 31 30 28 29 30 28 26 25 24 23 23
16 17 13 13 11 9 7 6 10 9 7 6 9 10 12 6 6 5 6 16 6 3 2 4 7 11 13 16 17 17 16 16 18 18 18 20 23 27 34 44 46 43 38 35 33 31 30 30 29 28 28 28 28 27
13 13 12 17 11 10 9 12 10 10 12 10 8 9 6 5 3 4 11 12 6 7 8 7 9 11 13 12 13 13 14 15 17 18 18 18 23 27 32 36 39 40 35 37 35 33 30 29 29 29 29 29 28 27
12 21 14 25 15 20 8 8 10 8 6 11 3 9 6 8 4 12 8 15 10 4 3 4 6 8 10 10 9 9 10 12 12 14 15 17 20 25 28 32 35 38 33 34 36 35 34 32 31 31 31 30 30 30
12 21 7 10 12 15 14 9 7 6 6 6 4 6 6 5 7 10 10 9 8 5 4 7 9 10 12 8 6 5 7 9 9 9 10 12 12 14 20 24 27 30 32 34 37 36 34 33 33 33 32 32 32 32
12 16 7 9 8 9 11 11 11 12 10 15 18 26 24 20 26 16 16 18 15 15 15 14 12 13 17 15 16 12 7 5 5 6 7 9 10 11 13 16 20 23 26 29 31 35 39 38 37 38 37 37 36 36
9 6 9 9 6 10 22 29 35 38 42 42 34 32 20 14 27 38 34 29 26 24 25 27 25 24 23 20 17 16 17 13 13 10 7 7 8 9 11 14 17 19 21 23 25 27 29 34 36 36 37 37 37 36
10 6 9 5 4 7 0 7 10 12 10 11 11 9 9 9 10 16 33 22 22 27 27 26 27 29 28 27 25 24 22 16 13 14 9 7 7 8 9 11 13 15 18 20 22 23 25 26 29 31 32 32 32 31
8 12 11 6 4 1 4 4 6 7 8 7 10 10 11 9 7 14 18 24 19 19 20 22 23 20 17 15 14 14 15 15 13 12 14 11 10 11 12 12 12 13 13 15 17 19 21 23 25 27 27 27 27 26
Wind_Direction_850mb
194 197 198 195 203 196 205 196 192 191 194 199 194 193 197 197 201 206 207 197 200 197 224 202 183 114 345 113 5 351 286 25 359 21 309 17 296 54 280 280 238 246 194 194 165 227 258 141 109 214 56 35 341 300
193 196 196 194 196 199 196 200 192 190 193 196 197 192 193 199 199 200 224 213 218 235 256 231 238 235 224 226 16 354 114 91 15 321 154 316 296 288 312 291 198 262 262 270 238 344 0 328 318 159 120 123 38 340
194 196 197 194 192 199 197 196 193 192 191 191 193 192 190 192 205 201 207 203 197 237 270 253 234 240 245 239 234 278 304 298 59 58 22 347 268 250 272 249 298 212 112 216 317 226 264 247 262 249 250 256 274 278
193 195 197 195 192 194 200 194 193 193 193 191 193 190 189 186 202 212 201 200 201 187 268 295 248 242 254 246 237 231 224 307 69 52 17 278 276 219 279 310 267 332 156 217 247 273 276 271 245 247 253 270 280 289
194 195 194 195 193 191 195 197 197 193 194 194 193 195 191 184 193 212 216 213 213 213 278 286 279 251 260 264 260 248 223 212 237 232 218 247 244 269 224 277 251 209 217 215 249 178 228 289 320 307 265 263 265 276
193 194 191 192 193 190 192 194 195 196 194 195 192 196 198 197 194 199 229 238 225 221 280 275 262 249 275 319 239 212 193 198 194 205 238 249 245 268 266 246 242 229 227 238 252 264 275 284 280 281 306 303 279 274
194 194 193 192 192 192 192 191 192 191 192 189 190 195 195 200 201 190 201 115 188 182 244 280 248 241 200 247 219 205 216 211 204 209 225 237 234 208 251 258 235 247 236 238 248 255 261 260 267 270 273 275 289 287
199 197 195 191 191 193 192 189 189 189 188 185 187 191 190 200 204 214 206 169 155 168 167 269 212 217 177 141 163 177 191 204 229 247 242 213 196 222 254 247 262 266 275 271 269 262 262 267 268 266 273 271 267 269
197 196 194 190 192 192 188 188 187 186 184 182 174 182 183 188 197 214 210 199 191 188 182 205 228 162 167 137 112 166 200 210 225 248 209 224 209 226 246 261 262 264 257 275 287 279 274 267 264 261 266 265 255 249
196 196 200 199 202 198 192 187 182 184 181 173 168 169 177 180 190 185 179 181 199 216 215 238 190 157 162 156 147 147 193 253 243 205 215 232 255 255 260 263 276 283 282 278 272 271 268 264 265 264 258 268 263 255
198 201 202 200 202 195 194 197 194 178 179 176 171 152 143 151 150 179 191 180 167 209 215 212 190 143 169 153 158 212 193 193 243 140 241 253 263 243 262 263 275 295 289 284 268 263 258 261 272 284 271 264 267 264
199 200 199 198 199 201 201 197 199 182 187 177 156 129 146 166 184 195 191 161 193 215 184 169 174 154 150 160 144 176 207 184 246 95 245 255 254 262 280 301 305 306 296 292 288 275 264 252 253 260 277 280 255 237
181 200 203 205 203 203 197 202 189 188 187 153 154 144 145 181 215 203 176 172 180 177 167 154 133 148 133 164 112 173 198 224 128 215 239 245 280 297 310 316 319 316 306 297 291 279 265 254 244 246 246 223 212 208
180 181 197 203 210 207 202 203 191 191 188 186 161 150 193 180 223 183 152 167 195 161 150 144 122 140 142 162 150 201 102 252 228 233 239 242 279 303 320 322 326 329 325 316 302 274 249 219 201 204 208 208 210 213
200 187 188 203 209 208 206 205 198 190 188 182 181 199 201 161 154 180 173 167 163 162 146 126 100 134 126 132 198 114 163 236 230 233 238 252 296 314 319 323 330 330 330 324 308 273 226 204 203 207 190 188 188 193
206 213 208 200 198 196 197 207 199 191 192 202 194 175 143 148 147 164 177 150 153 150 145 132 137 160 165 148 164 208 198 222 231 216 251 287 305 310 308 321 335 338 342 341 332 197 186 182 185 181 166 157 155 159
199 209 210 202 203 203 200 204 190 194 205 198 171 207 184 169 170 173 177 178 159 152 159 141 167 168 115 182 214 197 214 220 226 264 288 300 307 297 296 318 331 352 15 56 91 126 150 154 159 155 153 150 157 162
207 217 211 206 200 207 214 210 213 200 193 168 161 195 192 189 166 173 178 171 157 184 164 178 133 181 186 181 213 214 223 232 262 276 301 303 293 275 271 233 188 177 81 100 115 123 131 139 149 155 160 158 161 160
207 209 204 205 196 198 211 224 199 209 175 171 187 195 178 184 189 188 186 178 177 177 155 155 164 184 201 222 214 202 210 206 218 290 306 314 274 251 216 177 165 159 147 139 137 138 139 140 148 150 153 152 161 169
206 203 201 208 209 213 238 241 205 177 198 183 175 166 174 183 181 181 169 173 175 167 170 200 194 194 200 216 226 211 224 239 241 280 339 320 256 230 200 186 182 173 169 157 142 138 143 148 151 154 156 159 168 176
200 200 199 197 208 215 210 223 266 357 160 156 153 151 129 151 144 155 165 176 171 184 177 193 185 188 202 207 204 206 196 185 203 256 284 282 217 196 185 171 165 160 160 152 147 145 147 153 159 163 168 173 181 190
182 184 158 186 119 130 159 141 135 218 328 121 139 129 134 158 152 164 159 173 193 178 181 181 191 191 196 199 193 195 209 222 237 254 266 256 218 197 187 179 177 173 173 172 168 167 170 178 185 187 187 187 188 188
161 156 93 99 142 131 145 137 149 86 75 160 139 114 155 140 142 144 104 72 134 187 193 193 197 202 206 211 222 233 237 235 237 236 236 235 221 209 202 198 194 193 193 191 190 191 193 191 186 182 181 182 187 191
135 68 41 47 28 61 24 46 95 98 101 296 163 108 92 93 137 67 93 53 124 164 180 184 191 194 201 210 221 228 233 231 227 226 230 231 227 214 209 206 204 206 203 205 207 202 192 189 191 194 195 198 199 198
88 9 14 19 19 4 34 10 24 93 86 41 46 68 13 13 86 83 91 49 62 103 155 171 179 186 190 202 214 218 223 221 219 223 227 225 224 216 211 209 208 207 211 215 210 207 202 199 199 201 200 197 197 194
72 17 31 351 5 38 339 25 23 35 21 65 39 350 11 51 61 76 13 343 332 341 322 231 203 180 188 199 213 223 223 226 226 225 228 227 220 220 220 217 215 216 215 215 213 216 215 212 210 206 202 197 193 191
48 5 19 22 353 333 31 29 21 46 51 31 358 4 9 72 69 21 345 349 287 275 286 249 233 222 220 221 223 226 230 231 229 231 231 229 222 215 215 217 223 223 229 226 220 216 220 222 220 214 206 201 196 195
58 29 18 360 27 28 54 34 20 43 33 342 268 48 80 27 16 334 322 336 328 299 223 194 190 202 207 217 223 225 219 212 210 213 218 224 224 222 217 220 221 224 228 222 222 223 220 216 217 215 211 207 203 198
44 2 25 34 41 42 37 27 9 345 335 321 61 75 83 66 357 346 7 37 48 76 135 149 147 147 137 140 154 175 191 195 195 198 215 219 214 217 223 222 218 217 218 217 218 220 219 216 213 211 208 204 201 200
9 14 83 54 50 43 24 30 54 50 100 112 106 112 95 82 65 71 81 92 97 92 98 107 119 132 119 123 110 110 119 136 164 194 207 216 215 213 213 212 212 212 212 211 213 214 214 211 207 202 201 198 196 197
8 50 62 60 97 135 105 85 83 81 84 83 95 102 108 113 66 51 61 71 83 92 98 95 96 96 101 104 104 101 90 93 107 114 140 162 176 187 193 197 199 202 205 209 212 213 212 207 205 205 200 198 196 195
29 53 123 98 166 178 321 91 79 80 59 55 52 70 78 78 60 30 26 48 71 78 80 85 86 80 81 82 83 85 84 79 89 88 93 116 138 157 169 178 185 190 191 192 195 199 198 199 197 195 195 193 193 193
17 40 74 96 69 48 102 117 95 114 71 43 34 52 54 57 72 25 21 22 39 51 60 69 71 70 75 79 82 85 90 90 82 106 109 113 123 133 143 152 161 168 175 181 185 185 185 186 188 188 188 190 192 194